Location: Choisy
(48.7685°N, 2.4187°E)
Time: 08:29:55
(UTC+00:00)

ATLAS 3B R/B - Pass Details

Date: 30 November 2023
Orbit: 947 x 1247 km, 63.8° (Epoch: 10 February)

Event Time Altitude Azimuth Distance (km) Brightness Sun altitude
Exits shadow 03:19:40 15° 153° (SSE) 2,594 4.8 -38.8°
Maximum altitude 03:23:48 25° 109° (ESE) 2,093 4.6 -38.1°
Drops below altitude 10° 03:29:29 10° 58° (ENE) 3,083 5.7 -37.2°
Sets 03:32:48 0° 46° (NE) 4,095 6.4 -36.6°
